Change the Weather History Date:

Saturday, August 3, 2013

  Actual Average Record
Temperature  
Mean Temperature 70 °F 71 °F  
Max Temperature 79 °F 81 °F 97 °F (1930)
Min Temperature 60 °F 61 °F 45 °F (1927)
Degree Days  
Heating Degree Days 0 0  
Month to date heating degree days 0 0  
Since 1 June heating degree days 22 62  
Since 1 July heating degree days 1 8  
Cooling Degree Days 5 6  
Month to date cooling degree days 15 18  
Year to date cooling degree days 544 378  
Since 1 June cooling degree days 480 341  
Growing Degree Days 21 (Base 50)    
Moisture  
Dew Point 59 °F    
Average Humidity 66    
Maximum Humidity 93    
Minimum Humidity 39    
Precipitation  
Precipitation 0.09 in 0.12 in 1.34 in (1971)
Month to date precipitation 0.26 0.37  
Year to date precipitation 17.18 21.99  
Sea Level Pressure  
Sea Level Pressure 29.90 in    
Wind  
Wind Speed 5 mph (SW)    
Max Wind Speed 15 mph    
Max Gust Speed 21 mph    
Visibility 9 miles    
Events Rain    
T = Trace of Precipitation, MM = Missing Value Source: NWS Daily Summary

Daily Weather History Graph

Daily Weather History Graph

Search for Another Location

Airport or City:

Trip Planner

Search our weather history database for the weather conditions in past years. The results will help you decide how hot, cold, wet, or windy it might be!

Date:

Astronomy

Aug. 03, 2013 Rise Set
Actual Time 6:00 AM EDT 8:17 PM EDT
Civil Twilight 5:29 AM EDT 8:48 PM EDT
Nautical Twilight 4:51 AM EDT 9:25 PM EDT
Astronomical Twilight 4:09 AM EDT 10:07 PM EDT
Moon 3:07 AM EDT (8/3) 5:58 PM EDT (8/3)
Length of Visible Light 15h 18m
Length of Day
14h 17m
Waning Crescent, 9% of the Moon is Illuminated
Aug 3
Waning Crescent
Aug 6
New
Aug 14
First Quarter
Aug 20
Full
Aug 28
Last Quarter

Hourly Weather History & Observations

Time (EDT) Temp. Dew Point Humidity Pressure Visibility Wind Dir Wind Speed Gust Speed Precip Events Conditions
12:54 AM 64.9 °F 54.0 °F 68% 29.91 in 10.0 mi SSW 4.6 mph - N/A   Scattered Clouds
1:54 AM 64.0 °F 55.0 °F 73% 29.90 in 10.0 mi Calm Calm - N/A   Mostly Cloudy
2:54 AM 64.0 °F 55.0 °F 73% 29.88 in 10.0 mi SSW 3.5 mph - N/A   Mostly Cloudy
3:54 AM 64.0 °F 57.0 °F 78% 29.88 in 10.0 mi SSW 4.6 mph - 0.02 in Rain Light Rain
4:54 AM 63.0 °F 57.9 °F 84% 29.91 in 10.0 mi WSW 4.6 mph - 0.00 in Rain Light Rain
5:54 AM 63.0 °F 60.1 °F 90% 29.91 in 7.0 mi WSW 6.9 mph - 0.01 in Rain Light Rain
6:52 AM 64.4 °F 60.8 °F 88% 29.93 in 4.0 mi SW 4.6 mph - 0.00 in   Overcast
6:54 AM 64.0 °F 61.0 °F 90% 29.91 in 5.0 mi SW 5.8 mph - 0.00 in   Overcast
7:54 AM 64.0 °F 61.0 °F 90% 29.91 in 6.0 mi SSW 3.5 mph - 0.00 in Rain Light Rain
8:54 AM 64.9 °F 62.1 °F 90% 29.91 in 7.0 mi SSW 4.6 mph - 0.00 in   Mostly Cloudy
9:16 AM 64.4 °F 60.8 °F 88% 29.93 in 8.0 mi SW 6.9 mph - N/A   Partly Cloudy
9:40 AM 66.2 °F 60.8 °F 83% 29.93 in 7.0 mi SW 6.9 mph - N/A   Mostly Cloudy
9:54 AM 64.9 °F 61.0 °F 87% 29.92 in 8.0 mi SW 6.9 mph - 0.00 in Rain Light Rain
10:04 AM 64.4 °F 60.8 °F 88% 29.94 in 8.0 mi SW 5.8 mph - 0.00 in Rain Light Rain
10:14 AM 64.4 °F 60.8 °F 88% 29.94 in 9.0 mi SW 4.6 mph - 0.00 in   Overcast
10:40 AM 66.2 °F 60.8 °F 83% 29.94 in 8.0 mi SW 5.8 mph - 0.00 in Rain Light Rain
10:54 AM 66.0 °F 61.0 °F 84% 29.92 in 9.0 mi SW 6.9 mph - 0.00 in   Overcast
11:01 AM 66.2 °F 60.8 °F 83% 29.94 in 9.0 mi WSW 8.1 mph - N/A   Overcast
11:54 AM 68.0 °F 63.0 °F 84% 29.91 in 7.0 mi SSW 8.1 mph - N/A   Overcast
12:18 PM 71.6 °F 62.6 °F 73% 29.92 in 8.0 mi SW 8.1 mph - N/A   Scattered Clouds
12:54 PM 73.0 °F 62.1 °F 68% 29.89 in 10.0 mi SSW 9.2 mph - N/A   Partly Cloudy
1:54 PM 77.0 °F 59.0 °F 54% 29.87 in 10.0 mi SW 10.4 mph 17.3 mph N/A   Mostly Cloudy
2:54 PM 75.0 °F 62.1 °F 64% 29.87 in 9.0 mi NNW 11.5 mph 18.4 mph 0.00 in Rain Light Rain
3:54 PM 72.0 °F 64.9 °F 78% 29.86 in 10.0 mi Calm Calm - 0.06 in   Scattered Clouds
4:54 PM 78.1 °F 62.1 °F 58% 29.85 in 10.0 mi Variable 5.8 mph - N/A   Scattered Clouds
5:54 PM 79.0 °F 52.0 °F 39% 29.86 in 10.0 mi NW 10.4 mph - N/A   Partly Cloudy
6:54 PM 78.1 °F 52.0 °F 40% 29.86 in 10.0 mi NW 4.6 mph - N/A   Clear
7:54 PM 75.0 °F 53.1 °F 46% 29.88 in 10.0 mi WNW 4.6 mph - N/A   Clear
8:54 PM 68.0 °F 57.9 °F 70% 29.90 in 10.0 mi Calm Calm - N/A   Mostly Cloudy
9:54 PM 64.0 °F 59.0 °F 84% 29.92 in 10.0 mi Calm Calm - N/A   Mostly Cloudy
10:54 PM 64.9 °F 57.0 °F 75% 29.92 in 10.0 mi ESE 3.5 mph - N/A   Mostly Cloudy
11:54 PM 64.0 °F 55.0 °F 73% 29.92 in 10.0 mi East 4.6 mph - N/A   Mostly Cloudy